Weather History for KEVV - July, 2014

Change the Weather History Date:

Monday, July 21, 2014

  Actual Average Record
Temperature  
Mean Temperature 77 °F 78 °F  
Max Temperature 89 °F 88 °F 103 °F (1901)
Min Temperature 65 °F 68 °F 52 °F (1944)
Degree Days  
Heating Degree Days 0 0  
Month to date heating degree days 0 0  
Since 1 June heating degree days 0 6  
Since 1 July heating degree days 0 0  
Cooling Degree Days 12 13  
Month to date cooling degree days 204 273  
Year to date cooling degree days 777 706  
Since 1 June cooling degree days 566 571  
Growing Degree Days 26 (Base 50)    
Moisture  
Dew Point 64 °F    
Average Humidity 64    
Maximum Humidity 87    
Minimum Humidity 40    
Precipitation  
Precipitation 0.00 in 0.12 in 2.50 in (1969)
Month to date precipitation 3.66 2.74  
Year to date precipitation 29.02 26.76  
Snow  
Snow 0.00 in 0.00 in - ()
Month to date snowfall 0.0 0.0  
Since 1 June snowfall 0.0 0.0  
Since 1 July snowfall 0.0 0.0  
Snow Depth 0.00 in    
Sea Level Pressure  
Sea Level Pressure 30.07 in    
Wind  
Wind Speed 1 mph (NNW)    
Max Wind Speed 9 mph    
Max Gust Speed 11 mph    
Visibility 9 miles    
Events      
T = Trace of Precipitation, MM = Missing Value Source: NWS Daily Summary

Daily Weather History Graph

Daily Weather History Graph

Search for Another Location

Airport or City:

Trip Planner

Search our weather history database for the weather conditions in past years. The results will help you decide how hot, cold, wet, or windy it might be!

Date:

Astronomy

Jul. 21, 2014 Rise Set
Actual Time 5:43 AM CDT 8:08 PM CDT
Civil Twilight 5:13 AM CDT 8:38 PM CDT
Nautical Twilight 4:36 AM CDT 9:15 PM CDT
Astronomical Twilight 3:55 AM CDT 9:56 PM CDT
Moon 1:33 AM CDT (7/21) 3:51 PM CDT (7/21)
Length of Visible Light 15h 24m
Length of Day
14h 24m
Waning Crescent, 24% of the Moon is Illuminated
Jul 21
Waning Crescent
Jul 26
New
Aug 3
First Quarter
Aug 10
Full
Aug 17
Last Quarter

Hourly Weather History & Observations

Time (CDT) Temp. Heat Index Dew Point Humidity Pressure Visibility Wind Dir Wind Speed Gust Speed Precip Events Conditions
12:54 AM 69.1 °F - 63.0 °F 81% 30.04 in 10.0 mi Calm Calm - N/A   Clear
1:54 AM 66.9 °F - 63.0 °F 87% 30.04 in 9.0 mi Calm Calm - N/A   Clear
2:54 AM 66.9 °F - 63.0 °F 87% 30.03 in 9.0 mi Calm Calm - N/A   Clear
3:54 AM 68.0 °F - 63.0 °F 84% 30.04 in 10.0 mi Calm Calm - N/A   Clear
4:54 AM 66.0 °F - 62.1 °F 87% 30.06 in 8.0 mi Calm Calm - N/A   Clear
5:54 AM 66.0 °F - 62.1 °F 87% 30.07 in 9.0 mi Calm Calm - N/A   Clear
6:54 AM 68.0 °F - 63.0 °F 84% 30.09 in 8.0 mi Calm Calm - N/A   Clear
7:54 AM 72.0 °F - 64.0 °F 76% 30.10 in 10.0 mi Calm Calm - N/A   Clear
8:54 AM 78.1 °F - 66.0 °F 66% 30.11 in 10.0 mi Calm Calm - N/A   Clear
9:54 AM 80.1 °F 82.1 °F 66.0 °F 62% 30.11 in 10.0 mi ESE 3.5 mph - N/A   Clear
10:54 AM 82.0 °F 84.1 °F 66.0 °F 58% 30.11 in 10.0 mi Variable 4.6 mph - N/A   Clear
11:54 AM 84.0 °F 84.9 °F 63.0 °F 49% 30.10 in 10.0 mi ENE 5.8 mph - N/A   Scattered Clouds
12:54 PM 82.9 °F 84.0 °F 63.0 °F 51% 30.09 in 10.0 mi Calm Calm - N/A   Mostly Cloudy
1:54 PM 84.0 °F 85.4 °F 64.0 °F 51% 30.07 in 10.0 mi Calm Calm - N/A   Mostly Cloudy
2:54 PM 87.1 °F 88.9 °F 64.9 °F 48% 30.06 in 10.0 mi WNW 5.8 mph - N/A   Partly Cloudy
3:54 PM 87.1 °F 87.8 °F 63.0 °F 44% 30.05 in 10.0 mi WSW 3.5 mph - N/A   Scattered Clouds
4:54 PM 87.1 °F 87.0 °F 61.0 °F 41% 30.05 in 9.0 mi Calm Calm - N/A   Scattered Clouds
5:54 PM 87.1 °F 88.3 °F 64.0 °F 46% 30.05 in 10.0 mi Calm Calm - N/A   Partly Cloudy
6:54 PM 86.0 °F 88.2 °F 66.0 °F 51% 30.05 in 10.0 mi Calm Calm - N/A   Clear
7:54 PM 82.0 °F 84.5 °F 66.9 °F 60% 30.05 in 9.0 mi NNW 3.5 mph - N/A   Clear
8:54 PM 79.0 °F - 66.9 °F 66% 30.06 in 9.0 mi Calm Calm - N/A   Clear
9:54 PM 75.0 °F - 68.0 °F 79% 30.07 in 8.0 mi Calm Calm - N/A   Clear
10:54 PM 73.9 °F - 66.9 °F 79% 30.07 in 7.0 mi Calm Calm - N/A   Clear
11:54 PM 73.0 °F - 66.9 °F 81% 30.07 in 7.0 mi Calm Calm - N/A   Clear